Simultaneous Nadir Overpasses (SNOs) Predictions

Prediction of SNOs between NOAA-19 and NPP Satellite Orbit:

Table of predicted SNOs for the next 14.0 days since TLE Epoch: 9/8/2017
Index Date (NOAA-19) Time (NOAA-19) Lat,Lon (NOAA-19) SZA (NOAA-19 ) Date (NPP) Time (NPP) Lat,Lon (NPP) SZA (NPP ) Distance(km) Time Diff (sec)
1 09/09/2017 21:11:11 80.78, 173.01 78.92 09/09/2017 21:12:24 80.77, 173.10 78.86 2.10 73
2 09/09/2017 22:02:16 -80.78, -19.57 101.09 09/09/2017 22:03:09 -80.77, -19.66 101.12 2.17 53
3 09/09/2017 22:53:12 80.78, 147.68 78.93 09/09/2017 22:53:54 80.77, 147.71 78.89 1.81 42
4 09/09/2017 23:44:18 -80.78, -45.25 101.05 09/09/2017 23:44:40 -80.79, -45.40 101.03 2.97 22
5 09/10/2017 00:35:14 80.78, 121.99 78.97 09/10/2017 00:35:25 80.79, 121.97 78.98 1.25 11
6 09/10/2017 01:26:19 -80.78, -70.58 101.04 09/10/2017 01:26:09 -80.77, -70.44 101.06 2.72 10
7 09/10/2017 02:17:15 80.78, 96.66 78.98 09/10/2017 02:16:55 80.79, 96.57 79.01 1.69 20
8 09/10/2017 03:08:20 -80.79, -95.90 101.03 09/10/2017 03:07:39 -80.77, -95.83 101.03 2.09 41
9 09/10/2017 03:59:16 80.79, 71.33 78.99 09/10/2017 03:58:25 80.79, 71.18 79.03 2.70 51




NCC Satellite Simultaneous Nadir Overpasses (SNOs) Prediction Service
